Home   Weather   Saint-Étienne   Past weeks

Flag for France Past Weather in Saint-Étienne, Rhône-Alpes, France — Yesterday and Last 2 Weeks

Now
64 °F

Mostly cloudy.


Feels Like: 64 °F
Forecast: 58 / 87 °F
Wind: 10 mph from North

Location: St-Etienne Boutheon

Current Time: Jul 28, 2017 at 10:59:11 am

Latest Report: Jul 28, 2017 at 10:30 am


Visibility: N/A

Pressure: 30.09 "Hg (28.28 "Hg at 529m altitude)

Humidity: 73%

Dew Point: 55 °F

Location of Saint-ÉtienneLocation

Past Weather in Saint-Étienne — Graph

°F

Saint-Étienne Temperature Yesterday

Maximum temperature yesterday: 82 °F (at 3:00 pm)
Minimum temperature yesterday: 61 °F (at 2:00 am)
Average temperature yesterday: 70 °F

High & Low Weather Summary for the Past Weeks

 TemperatureHumidityPressure
High91 °F (Jul 18, 2:30 pm)100% (Jul 21, 7:00 am)30.27 "Hg (Jul 21, 7:00 am)
Low52 °F (Jul 16, 4:30 am)21% (Jul 18, 2:30 pm)29.89 "Hg (Jul 21, 6:30 pm)
Average70 °F63%30.05 "Hg
* Reported Jul 13 9:00 am — Jul 28 9:30 am, Saint-Étienne. Weather by CustomWeather, © 2017

Note: Actual official high and low records may vary slightly from our data, if they occured in-between our weather recording intervals... More about our weather records

Advertising

Saint-Étienne Weather History for the Previous 24 Hours

Scroll right to see more
 ConditionsComfort  
Time TempWeatherWind HumidityBarometerVisibility
9:30 am
Fri, Jul 28
66 °FPartly sunny.6 mph73%30.07 "HgN/A
9:00 am64 °FMostly cloudy.5 mph83%30.07 "HgN/A
8:30 am64 °FMostly cloudy.3 mph83%30.04 "HgN/A
8:00 am64 °FMostly cloudy.3 mph83%30.04 "HgN/A
7:30 am64 °FPartly sunny.3 mph83%30.04 "HgN/A
7:00 am63 °FPartly sunny.3 mph83%30.04 "HgN/A
6:30 am61 °FMostly cloudy.3 mph88%30.01 "HgN/A
6:00 am59 °FMostly cloudy.3 mph88%30.01 "HgN/A
5:30 am59 °FClear.2 mph88%30.01 "Hg10 mi
5:00 am61 °FClear.2 mph83%29.98 "Hg10 mi
4:30 am63 °FClear.2 mph77%29.98 "Hg10 mi
4:00 am64 °FClear.3 mph73%29.98 "Hg10 mi
3:30 am70 °FClear.5 mph60%29.98 "Hg10 mi
2:00 am70 °FPassing clouds.3 mph64%29.98 "HgN/A
1:30 am70 °FClear.2 mph64%29.98 "Hg10 mi
1:00 am70 °FPassing clouds.3 mph60%29.98 "HgN/A
12:30 am70 °FPassing clouds.6 mph64%29.95 "HgN/A
12:00 am70 °FPassing clouds.6 mph64%29.98 "HgN/A
11:30 pm
Thu, Jul 27
70 °FClear.6 mph64%29.98 "Hg10 mi
11:00 pm68 °FClear.No wind73%29.98 "Hg10 mi
10:30 pm70 °FOvercast.No wind69%29.95 "HgN/A
10:00 pm72 °FClear.1 mph61%29.95 "Hg10 mi
9:30 pm72 °FClear.2 mph61%29.95 "Hg10 mi
9:00 pm73 °FPassing clouds.3 mph57%29.95 "HgN/A
8:30 pm75 °FPassing clouds.3 mph57%29.95 "HgN/A
8:00 pm77 °FScattered clouds.8 mph57%29.92 "HgN/A
7:30 pm81 °FPartly sunny.9 mph45%29.92 "HgN/A
7:00 pm82 °FScattered clouds.12 mph45%29.92 "HgN/A
6:30 pm81 °FPassing clouds.9 mph51%29.92 "HgN/A
6:00 pm81 °FSunny.6 mph51%29.92 "Hg10 mi
5:30 pm79 °FPartly sunny.3 mph54%29.92 "HgN/A
5:00 pm75 °FMore clouds than sun.6 mph61%29.92 "HgN/A
4:30 pm77 °FMore clouds than sun.10 mph57%29.95 "HgN/A
4:00 pm79 °FPassing clouds.7 mph51%29.92 "HgN/A
3:30 pm81 °FOvercast.3 mph48%29.92 "HgN/A
3:00 pm82 °FPassing clouds.5 mph45%29.92 "HgN/A
2:30 pm81 °FPassing clouds.5 mph48%29.92 "HgN/A
2:00 pm81 °FSunny.3 mph51%29.92 "Hg10 mi
1:30 pm79 °FPassing clouds.3 mph51%29.92 "HgN/A
1:00 pm77 °FPassing clouds.3 mph51%29.95 "HgN/A
12:30 pm77 °FPartly sunny.2 mph54%29.95 "HgN/A
12:00 pm75 °FPartly sunny.6 mph54%29.95 "HgN/A
11:30 am73 °FSunny.3 mph57%29.95 "Hg10 mi
11:00 am72 °FPassing clouds.5 mph61%29.95 "HgN/A
10:30 am70 °FPassing clouds.6 mph69%29.98 "HgN/A
10:00 am68 °FMore clouds than sun.5 mph73%29.98 "HgN/A
Weather by CustomWeather, © 2017

See weather overviewHow to use our weather pages